Volver al catálogo

STARLINK-4525

ActivoComunicacionesVLEO
NORAD 53401·PAYLOAD·🇺🇸 United States

Lanzado Aug 10, 2022 desde Cape Canaveral Space Force Station

Loading…

Próximos Pases (próximas 24 horas)

TLE

ActualizadoSource: CelesTrak SupGP

Época: Sep 14, 2026, 20:53 UTC

1 53401C 22097P   26257.87062500 -.00041687  00000+0 -12650-2 0  2573
2 53401  53.1587 348.2054 0001099  71.6797 178.7724 15.33569526    18

Sigue STARLINK-4525 en tiempo real con AllMySat

Download on the App Store